Home > Weather > Sedona > Past weeks

Flag for U.S.A. Weather for the Past 2 Weeks in Sedona, Arizona, U.S.A.

Now
52 °F

Clear.


Feels Like: 51 °F
Forecast: 47 / 69 °F
Wind: 5 mph from Northeast

Location: Sedona Airport

Current Time: Feb 9, 2016 at 8:02:40 AM

Latest Report: Feb 9, 2016 at 7:15 AM


Visibility: 10 mi

Pressure: 30.37 "Hg (26.03 "Hg at 1282m altitude)

Humidity: 24%

Dew point: 16 °F

Location of SedonaLocation

Historic Weather in Sedona — Graph

°F

Sedona Temperature Yesterday

Maximum temperature yesterday: 68 °F (at 11:35 AM)
Minimum temperature yesterday: 46 °F (at 1:35 AM)
Average temperature yesterday: 56 °F

High & Low Weather Summary for the Past Weeks

 TemperatureHumidityPressure
High68 °F (Feb 8, 11:35 AM)100% (Jan 31, 10:55 PM)30.47 "Hg (Jan 31, 10:55 PM)
Low21 °F (Feb 2, 4:15 AM)14% (Feb 8, 11:55 AM)29.51 "Hg (Jan 31, 9:35 PM)
Average43 °F38%30.19 "Hg
* Reported Jan 25 6:15 AM — Feb 9 6:15 AM, Sedona, Weather by CustomWeather, © 2016

Note: Actual official high and low records may vary slightly from our data, if they occured in-between our weather recording intervals... More about our weather records

Advertising

Sedona Weather History for the Previous 24 Hours

 ConditionsComfort  
Time TempWeatherWind HumidityBarometerVisibility
6:15 AM
Tue, Feb 9
52 °FClear.6 mph26%30.36 "Hg10 mi
5:55 AM52 °FClear.7 mph26%30.36 "Hg10 mi
5:15 AM52 °FClear.13 mph26%30.36 "Hg10 mi
4:55 AM52 °FClear.12 mph26%30.35 "Hg10 mi
4:15 AM52 °FClear.15 mph26%30.34 "Hg10 mi
3:15 AM52 °FClear.14 mph28%30.36 "Hg10 mi
2:55 AM50 °FClear.13 mph30%30.36 "Hg10 mi
2:15 AM50 °FClear.8 mph30%30.37 "Hg10 mi
1:55 AM50 °FClear.10 mph30%30.37 "Hg10 mi
12:55 AM52 °FClear.10 mph30%30.38 "Hg10 mi
12:15 AM52 °FClear.10 mph30%30.38 "Hg10 mi
11:55 PM
Mon, Feb 8
52 °FClear.9 mph30%30.38 "Hg10 mi
11:15 PM54 °FClear.9 mph28%30.38 "Hg10 mi
10:55 PM54 °FClear.9 mph28%30.38 "Hg10 mi
10:15 PM55 °FClear.10 mph26%30.37 "Hg10 mi
9:55 PM55 °FClear.10 mph24%30.37 "Hg10 mi
9:15 PM55 °FClear.15 mph26%30.37 "Hg10 mi
8:55 PM55 °FClear.12 mph26%30.37 "Hg10 mi
8:15 PM57 °FClear.12 mph23%30.36 "Hg10 mi
7:55 PM57 °FClear.14 mph23%30.36 "Hg10 mi
7:15 PM55 °FClear.14 mph24%30.36 "Hg10 mi
6:35 PM57 °FClear.10 mph23%30.36 "Hg10 mi
6:15 PM59 °FClear.8 mph21%30.36 "Hg10 mi
5:55 PM61 °FSunny.9 mph19%30.36 "Hg10 mi
5:15 PM63 °FSunny.13 mph17%30.35 "Hg10 mi
4:35 PM64 °FSunny.12 mph16%30.34 "Hg10 mi
4:15 PM66 °FSunny.10 mph17%30.34 "Hg10 mi
3:15 PM68 °FSunny.18 mph16%30.34 "Hg10 mi
2:55 PM68 °FSunny.18 mph14%30.34 "Hg10 mi
2:15 PM66 °FSunny.20 mph17%30.36 "Hg10 mi
1:55 PM68 °FSunny.16 mph14%30.36 "Hg10 mi
1:35 PM68 °FSunny.13 mph14%30.36 "Hg10 mi
1:15 PM68 °FSunny.13 mph14%30.37 "Hg10 mi
12:55 PM68 °FSunny.10 mph14%30.37 "Hg10 mi
12:35 PM68 °FSunny.15 mph14%30.38 "Hg10 mi
12:15 PM68 °FSunny.10 mph14%30.40 "Hg10 mi
11:55 AM68 °FSunny.8 mph14%30.40 "Hg10 mi
11:35 AM68 °FSunny.5 mph16%30.42 "Hg10 mi
11:15 AM64 °FSunny.15 mph16%30.42 "Hg10 mi
10:55 AM64 °FSunny.17 mph16%30.43 "Hg10 mi
10:35 AM63 °FSunny.9 mph17%30.43 "Hg10 mi
10:15 AM61 °FSunny.13 mph19%30.43 "Hg10 mi
9:55 AM59 °FSunny.16 mph18%30.43 "Hg10 mi
9:35 AM57 °FSunny.15 mph20%30.42 "Hg10 mi
9:15 AM55 °FSunny.18 mph21%30.42 "Hg10 mi
8:55 AM54 °FSunny.12 mph21%30.42 "Hg10 mi
8:35 AM54 °FSunny.13 mph21%30.41 "Hg10 mi
8:15 AM52 °FSunny.18 mph22%30.41 "Hg10 mi
Weather by CustomWeather, © 2016

See weather overviewHow to use our weather pages